Regional Weather Roundup
Issued by NWS

Home | Current Version | Previous Version | Text Only | Print | Product List | Glossary Off
Versions: 1 2 3 4 5 6 7 8 9 10 11 12 13 14 15 16 17 18 19 20 21 22 23 24 25 26 27 28 29 30 31 32 33 34 35 36 37 38 39 40 41 42 43 44 45 46 47 48 49 50

000
ASUS43 KLOT 291303
RWRIL

ILLINOIS REGIONAL WEATHER ROUNDUP
NATIONAL WEATHER SERVICE CHICAGO/ROMEOVILLE IL
800 AM CDT WED MAR 29 2017

NOTE: "FAIR" INDICATES FEW OR NO CLOUDS BELOW 12,000 FEET WITH NO
SIGNIFICANT WEATHER AND/OR OBSTRUCTIONS TO VISIBILITY.

* THESE STATIONS ARE NOT UNDER NWS QUALITY CONTROL. THEY ALSO MAY NOT
  REPORT WEATHER SUCH AS PRECIPITATION OR FOG.

ILZ001-002-007-009-015-016-024-291400-
NORTHWEST ILLINOIS

CITY           SKY/WX    TMP DP  RH WIND       PRES   REMARKS
MOLINE         CLOUDY    42  38  85 E13       30.14F FOG
STERLING*      CLOUDY    39  37  92 E17       30.18F FOG     WCI  30
SAVANNA*       CLOUDY    39  37  94 E13       30.19F FOG     WCI  31
$$

ILZ003-004-008-010-011-017-018-291400-
NORTH CENTRAL ILLINOIS

CITY           SKY/WX    TMP DP  RH WIND       PRES   REMARKS
ROCKFORD       CLOUDY    37  35  92 E9        30.24F FOG     WCI  30
FREEPORT*      CLOUDY    35  35  99 E9        30.24F FOG     WCI  28
ROCHELLE*      PTSUNNY   37  37  99 E12       30.21F FOG     WCI  29
DE KALB*       CLOUDY    36  36  99 E9        30.22S FOG     WCI  29
PERU*          CLOUDY    38  37  93 E15G22    30.19F FOG     WCI  30
$$

ILZ005-006-012>014-019>023-291400-
NORTHEAST ILLINOIS

CITY           SKY/WX    TMP DP  RH WIND       PRES   REMARKS
CHICAGO-OHARE  CLOUDY    36  34  92 NE7       30.25R FOG     WCI  30
CHICAGO-MIDWAY CLOUDY    38  36  92 NE8       30.25R WCI  32
AURORA         CLOUDY    38  36  92 NE12      30.23S FOG     WCI  30
LANSING*       FOG       36  36 100 NE5       30.25R VSB 3/4 WCI  32
JOLIET*        MOSUNNY   39  38  95 E9        30.23F FOG     WCI  33
WAUKEGAN       FOG       34  34 100 NE5       30.25F VSB 1/2 WCI  30
DUPAGE AIRPORT FOG       36  36 100 NE9       30.24R VSB 1/2 WCI  29
WHEELING       CLOUDY    34  34 100 VRB3      30.27R
MORRIS*        CLOUDY    38  37  94 CALM      30.21S FOG
NORTHERLY ISL    N/A     36  35  96 N7          N/A  WCI  30
$$

LMZ740>746-291400-
SOUTHERN LAKE MICHIGAN

STATION/POSITION SKY/WX   TEMP    WIND        PRES    VSBY  WAVE
                          AIR SEA DIR/SP/G                  HT/PER
                          (F)     (DEG/KT/KT) (MB)    (MI)  (FT/S)
HARRISON CRIB              35      10/  6/  7   N/A
BURNHAM HARBOR             36      10/  8/ 11   N/A
CALUMET HARBOR             35      30/  5/  8 1023.8R
BURNS HARBOR               37      80/  6/  9 1024.7R
MICHIGAN CITY              37      50/  9/ 10   N/A
$$

ILZ025>027-034>036-040-047-049-050-058-095>099-291400-
WEST-CENTRAL ILLINOIS

CITY           SKY/WX    TMP DP  RH WIND       PRES   REMARKS
QUINCY         CLOUDY    43  40  89 E13       30.07R
GALESBURG*     CLOUDY    43  42  98 E10G17    30.12R FOG
MACOMB*        CLOUDY    43  43  99 E15       30.13R FOG
JACKSONVILLE*  CLOUDY    45  43  90 E15       30.08R
PITTSFIELD*    CLOUDY    46  42  89 E8        30.07R
$$

ILZ028>032-037-038-041>044-048-051>054-059>061-291400-
CENTRAL ILLINOIS

CITY           SKY/WX    TMP DP  RH WIND       PRES   REMARKS
PONTIAC        MOSUNNY   41  41  99 NE14      30.19S FOG
BLOOMINGTON    CLOUDY    44  43  96 E18       30.15S
DECATUR        CLOUDY    48  44  86 E20       30.10F
PEORIA         CLOUDY    44  43  96 E13       30.11F FOG
SPRINGFIELD    CLOUDY    48  43  82 E18G25    30.08F
TAYLORVILLE    NOT AVBL
$$

ILZ033-039-045-046-055>057-062-063-291400-
EAST-CENTRAL ILLINOIS

CITY           SKY/WX    TMP DP  RH WIND       PRES   REMARKS
CHAMPAIGN      CLOUDY    48  43  82 E16       30.15R
RANTOUL*       CLOUDY    48  46  90 E18       30.15F
MATTOON        LGT RAIN  47  47 100 E13       30.12R
$$

ILZ079-100>102-291400-
SOUTHWEST ILLINOIS

CITY           SKY/WX    TMP DP  RH WIND       PRES   REMARKS
ALTON          CLOUDY    46  43  87 E9        30.06R
BELLEVILLE     CLOUDY    47  47  99 E13       30.03R
CAHOKIA*       CLOUDY    50  44  80 E12       30.03R
SPARTA*        CLOUDY    49  47  93 E12       30.03R
$$

ILZ064>066-069>071-074>076-080>082-084>086-088>090-092>094-291400-
SOUTH-CENTRAL ILLINOIS

CITY           SKY/WX    TMP DP  RH WIND       PRES   REMARKS
CARBONDALE     CLOUDY    52  50  93 E9        30.03R
CAIRO*           N/A     54  51  92 E12       30.00S
EFFINGHAM*     CLOUDY    47  46  96 NE10      30.10F
MARION         SUNNY     54  52  94 E12       30.03F
MT. VERNON     CLOUDY    50  47  89 E13       30.06S
CENTRALIA*     MOSUNNY   50  47  90 E12G17    30.05R
SALEM*         CLOUDY    49  45  84 E9G16     30.07R
$$

ILZ067-068-072-073-078-083-087-091-291400-
SOUTHEAST ILLINOIS

CITY           SKY/WX    TMP DP  RH WIND       PRES   REMARKS
LAWRENCEVILLE  PTSUNNY   50  47  89 NE7       30.12R
FLORA*         SUNNY     50  46  88 E8        30.10R
FAIRFIELD*     SUNNY     51  48  89 E7        30.08R
HARRISBURG*    CLOUDY    53  50  91 E12       30.04F FOG
ROBINSON*      SUNNY     50  47  91 E6        30.13R
CARMI*         CLOUDY    51  49  92 E9        30.07S FOG
$$

ABBREVIATIONS USED IN REMARKS
   TC - TEMPERATURE IN CELSIUS
  WCI - WIND CHILL INDEX
   HX - HEAT INDEX
  VSB - VISIBILITY
$$





USA.gov is the U.S. government's official web portal to all federal, state and local government web resources and services.